Starlink 30221

operational
NORAD ID: 57418 Int'l Des: 2023-102 Owner: SPXS Country: US Constellation: starlink
LEOCIRCULAR

关于 Starlink 30221

正在加载描述...

实时位置

正在加载3D地球...

即将过境

高度历史

Altitude vs Time

uPlot chart will show altitude changes over time

两行轨道根数

1 57418U 23102Q 25260.00701669 -.00000885 00000-0 -50456-4 0 9994
2 57418 43.0034 112.3014 0001154 260.1411 99.9301 15.02534178120111
Epoch: Sep 17, 2025 • Age: 12 hours

当前状态

高度 562.8 km
速度 7.59 km/s
星下点 42.35°N, 39.91°E
发射日期 Jul 19, 2023
运行时间 2.1 years
类型 internet

技术详情

分类 Payload
质量 730.00 kg
干质量 700.00 kg
总质量 730.00 kg
长度 0.30 m
直径 4.10 m
跨度 29.00 m
形状 Box + pan
制造商 SPXS
平台类型 Starlink V2M
阶段状态 In Orbit
所有者/国家 SPXS/US

大型星座

Loading constellations...